[[{"header":{"parameterUnit":"m.s-1","parameterCategory":1,"la1":30.2991,"la2":30.254,"lo1":-89.0895,"lo2":-89.0444,"dy":0.0017,"dx":0.0017,"nx":28,"ny":28,"refTime":"2025-06-03T03:00:00:Z","depth":0,"parameterNumber":2,"parameterNumberName":"U-component_of_WINDS"},"data":[0,0,0,0,0,0,0,0,0,0,0,0,0,0,0,0,0,0,0,0,0,0,0,0,0,0,0,0,0,0,0,0,0,0,0,0,0,0,0,0,0,0,0,0,0,0,0,0,0,0,0,0,0,0,0,0,0,0,-6.0728,-6.0728,0,-6.0757,-6.0757,-6.0757,-6.068,-6.0678,-6.0675,-6.0673,-6.0702,-6.0705,-6.0708,0,0,0,0,0,0,0,0,0,0,0,0,0,-6.0607,-6.061,-6.0728,-6.0728,-6.0729,-6.0757,-6.0757,-6.0757,-6.0681,-6.0678,-6.0675,-6.0672,-6.0701,-6.0704,-6.0708,0,0,0,0,0,0,0,0,0,0,0,0,0,-6.065,-6.0611,-6.0728,-6.0694,-6.0691,-6.0757,-6.0757,-6.0758,-6.0681,-6.0678,-6.0674,-6.0671,-6.07,-6.0704,-6.0708,-6.0808,0,0,-6.0722,-6.0724,0,0,0,0,0,0,0,0,-6.0648,-6.0655,-6.0699,-6.0696,-6.0693,-6.0711,-6.0725,-6.0774,-6.0682,-6.0685,-6.0673,-6.0669,-6.0708,-6.0711,-6.0725,-6.0809,-6.0811,-6.0722,-6.0725,-6.0727,-6.0728,0,0,0,0,0,0,0,-6.0645,-6.0653,-6.0739,-6.0699,-6.0696,-6.0677,-6.0679,-6.0734,-6.0716,-6.0684,-6.0679,-6.0683,-6.0706,-6.072,-6.0725,-6.0811,-6.0722,-6.0726,-6.0729,-6.0731,-6.0979,-6.0983,0,0,0,0,0,0,-6.0647,-6.0651,-6.0738,-6.074,-6.0661,-6.0682,-6.0685,-6.0709,-6.0715,-6.0713,-6.0686,-6.068,-6.0714,-6.0719,-6.0725,-6.0841,-6.0727,-6.0731,-6.0734,-6.0975,-6.098,-6.0984,0,0,0,0,0,0,-6.0644,-6.0655,-6.0737,-6.0694,-6.0703,-6.0688,-6.0716,-6.0712,-6.0726,-6.0717,-6.0713,-6.0705,-6.0712,-6.0719,-6.0788,-6.0841,-6.0733,-6.0737,-6.0971,-6.0977,-6.0982,-6.1074,0,0,0,0,0,0,-6.0641,-6.0655,-6.0692,-6.0696,-6.0706,-6.0799,-6.072,-6.0715,-6.0734,-6.0726,-6.0733,-6.0731,-6.071,-6.0782,-6.0793,-6.0845,-6.0741,-6.0966,-6.0973,-6.098,-6.1067,-6.1083,-6.1097,0,0,0,0,0,-6.0637,-6.0717,-6.0694,-6.0705,-6.0752,-6.0803,-6.0808,-6.0782,-6.0739,-6.0776,-6.0771,-6.073,-6.0835,-6.0789,-6.0801,-6.0856,-6.0962,-6.0971,-6.098,-6.106,-6.108,-6.1096,0,0,0,0,0,0,-6.0719,-6.0716,-6.0691,-6.0775,-6.079,-6.0789,-6.0835,-6.0804,-6.0831,-6.0822,-6.0789,-6.0792,-6.0867,-6.0869,-6.0818,-6.0953,-6.0891,-6.0902,-6.0948,-6.0967,-6.0981,-6.0978,-6.0745,0,0,0,0,0,-6.0747,-6.0788,-6.0784,-6.0858,-6.0867,-6.0851,-6.0871,-6.0851,-6.0864,-6.087,-6.0869,-6.0884,-6.092,-6.0944,-6.0977,-6.1068,-6.1068,-6.1112,-6.1127,-6.1139,-6.1148,-6.1196,-6.1215,-6.1013,-6.1013,-6.1013,0,0,-6.0804,-6.0808,-6.0836,-6.0874,-6.0883,-6.0926,-6.0856,-6.0904,-6.0936,-6.0877,-6.0941,-6.0942,-6.0957,-6.1037,-6.1073,-6.1041,-6.1205,-6.1151,-6.1161,-6.1163,-6.1207,-6.1226,-6.1243,-6.1019,-6.1018,-6.1017,0,0,-6.093,-6.0939,-6.1,-6.1011,-6.1026,-6.1015,-6.1031,-6.1036,-6.1034,-6.1099,-6.1056,-6.1093,-6.1156,-6.1168,-6.1182,-6.1317,-6.128,-6.1329,-6.1405,-6.1452,-6.1468,-6.1482,-6.1528,-6.1545,-6.1339,-6.1339,-6.1339,0,-6.0999,-6.1062,-6.1036,-6.1088,-6.1105,-6.1056,-6.1118,-6.1131,-6.1156,-6.1169,-6.1134,-6.1212,-6.1219,-6.1301,-6.1334,-6.1348,-6.1364,-6.1325,-6.1468,-6.1482,-6.1494,-6.1538,-6.1555,-6.1344,-6.1344,-6.1343,-6.1343,0,-6.1146,-6.1191,-6.1239,-6.1264,-6.1289,-6.1345,-6.1328,-6.1355,-6.1334,-6.1327,-6.1394,-6.1401,-6.1433,-6.1452,-6.1432,-6.1532,-6.1512,-6.1474,-6.141,-6.152,-6.1559,-6.1576,-6.1352,-6.135,-6.1349,-6.1347,0,0,-6.1319,-6.1332,-6.135,-6.1361,-6.1375,-6.1409,-6.1465,-6.1498,-6.1521,-6.1542,-6.1586,-6.1642,-6.1607,-6.1623,-6.1604,-6.1646,-6.175,-6.1602,-6.1602,-6.1627,-6.1859,-6.1885,-6.1905,-6.1728,-6.1731,-6.1734,-6.1857,0,-6.1442,-6.1536,-6.1515,-6.1607,-6.1648,-6.1604,-6.1652,-6.1666,-6.1662,-6.1696,-6.1692,-6.1731,-6.1683,-6.1693,-6.1733,-6.1729,-6.1795,-6.172,-6.1767,-6.1769,-6.1761,-6.1926,-6.1953,-6.2069,-6.1873,-6.1875,-6.1877,0,-6.1595,-6.1622,-6.1718,-6.1727,-6.1743,-6.1787,-6.1815,-6.1849,-6.1865,-6.1859,-6.1879,-6.1853,-6.1908,-6.1847,-6.1922,-6.1871,-6.189,-6.1892,-6.1896,-6.1896,-6.1827,-6.1927,-6.2106,-6.2122,-6.1902,-6.19,-6.1898,0,-6.1709,-6.1769,-6.1834,-6.1846,-6.1858,-6.189,-6.1896,-6.1909,-6.193,-6.1956,-6.1969,-6.2002,-6.2019,-6.2045,-6.2027,-6.1985,-6.2105,-6.2043,-6.21,-6.2101,-6.2123,-6.2122,-6.2304,-6.2142,-6.2142,-6.2142,-6.2142,0,-6.1845,-6.1905,-6.1886,-6.1925,-6.1992,-6.1969,-6.2035,-6.2037,-6.2049,-6.2088,-6.2054,-6.2092,-6.2068,-6.2105,-6.2092,-6.2155,-6.2164,-6.216,-6.2155,-6.2161,-6.2161,-6.217,-6.216,-6.2146,-6.2145,-6.2145,-6.2144,0,-6.1981,-6.1971,-6.2038,-6.2046,-6.2049,-6.2097,-6.2103,-6.214,-6.2136,-6.2186,-6.2197,-6.2189,-6.2229,-6.2216,-6.2261,-6.2252,-6.2332,-6.2318,-6.2326,-6.2321,-6.2378,-6.2372,-6.2569,-6.2593,-6.242,-6.2421,-6.2423,0,-6.2066,-6.2112,-6.2124,-6.2148,-6.2158,-6.2197,-6.2219,-6.22,-6.2224,-6.2247,-6.2281,-6.2319,-6.2348,-6.2416,-6.2414,-6.2448,-6.2433,-6.25,-6.2437,-6.2442,-6.243,-6.2426,-6.243,-6.2511,-6.2513,-6.2515,-6.2516,0,-6.2218,-6.2212,-6.2244,-6.2277,-6.2304,-6.2328,-6.2349,-6.2371,-6.2353,-6.2382,-6.2424,-6.2447,-6.2493,-6.253,-6.2562,-6.2568,-6.2539,-6.2537,-6.2551,-6.2555,-6.2556,-6.2554,-6.2356,-6.2531,-6.2529,-6.2528,-6.2528,-6.2527,-6.2329,-6.2368,-6.2382,-6.2421,-6.2435,-6.2456,-6.2491,-6.2491,-6.2526,-6.2561,-6.2549,-6.2596,-6.2612,-6.2651,-6.2663,-6.27,-6.2674,-6.2695,-6.27,-6.2705,-6.2711,-6.2555,-6.2706,-6.2706,-6.2705,-6.2705,-6.2704,0,-6.2477,-6.2485,-6.2521,-6.2552,-6.2582,-6.2555,-6.2577,-6.2604,-6.2646,-6.2664,-6.2694,-6.2742,-6.278,-6.2782,-6.2817,-6.2846,-6.2834,-6.2856,-6.2851,-6.2853,-6.2733,-6.2716,-6.2865,-6.2865,-6.2865,-6.2865,-6.2865,-6.2865,-6.2557,-6.2619,-6.2615,-6.2685,-6.2693,-6.2739,-6.2754,-6.2773,-6.2787,-6.2843,-6.2874,-6.2876,-6.2888,-6.2924,-6.2957,-6.2957,-6.297,-6.2996,-6.2991,-6.2878,-6.2862,-6.2846,-6.2829,-6.3,-6.3001,-6.3107,-6.3108,-6.3109]},{"header":{"parameterUnit":"m.s-1","parameterCategory":1,"la1":30.2991,"la2":30.254,"lo1":-89.0895,"lo2":-89.0444,"dy":0.0017,"dx":0.0017,"nx":28,"ny":28,"refTime":"2025-06-03T03:00:00:Z","depth":0,"parameterNumber":3,"parameterNumberName":"V-component_of_WINDS"},"data":[0,0,0,0,0,0,0,0,0,0,0,0,0,0,0,0,0,0,0,0,0,0,0,0,0,0,0,0,0,0,0,0,0,0,0,0,0,0,0,0,0,0,0,0,0,0,0,0,0,0,0,0,0,0,0,0,0,0,2.5458,2.5459,0,2.5536,2.5536,2.5537,2.5622,2.5624,2.5625,2.5626,2.5701,2.5702,2.5703,0,0,0,0,0,0,0,0,0,0,0,0,0,2.5382,2.5383,2.5458,2.5459,2.546,2.5535,2.5536,2.5537,2.5622,2.5624,2.5625,2.5627,2.5701,2.5702,2.5703,0,0,0,0,0,0,0,0,0,0,0,0,0,2.5433,2.5384,2.5458,2.5512,2.5517,2.5535,2.5536,2.5538,2.5622,2.5624,2.5626,2.5627,2.5701,2.5702,2.5703,2.5673,0,0,2.5707,2.5707,0,0,0,0,0,0,0,0,2.543,2.5435,2.5503,2.5508,2.5514,2.5571,2.5537,2.5583,2.5621,2.5582,2.5626,2.5628,2.5656,2.5661,2.5671,2.5677,2.568,2.5707,2.5708,2.5708,2.5709,0,0,0,0,0,0,0,2.5426,2.5433,2.5489,2.5504,2.5511,2.5531,2.554,2.5546,2.5607,2.5586,2.5592,2.56,2.566,2.567,2.5674,2.5681,2.5707,2.5708,2.5709,2.5709,2.5668,2.5666,0,0,0,0,0,0,2.5415,2.5429,2.5486,2.5491,2.5476,2.5531,2.5541,2.5551,2.5608,2.5618,2.5598,2.5604,2.5667,2.5672,2.5677,2.5647,2.5708,2.5709,2.571,2.567,2.5668,2.5666,0,0,0,0,0,0,2.5413,2.5419,2.5483,2.5462,2.5472,2.553,2.5541,2.5552,2.5562,2.5618,2.5629,2.5598,2.5669,2.5675,2.5674,2.5651,2.571,2.5711,2.5672,2.5669,2.5667,2.5586,0,0,0,0,0,0,2.541,2.5418,2.5408,2.5461,2.5472,2.548,2.5539,2.5552,2.5565,2.5572,2.562,2.563,2.5671,2.5672,2.5675,2.5654,2.5712,2.5674,2.5671,2.5667,2.5591,2.5581,2.5572,0,0,0,0,0,2.5407,2.5381,2.5407,2.5413,2.5461,2.5478,2.5485,2.5533,2.5562,2.5552,2.5588,2.5628,2.5653,2.5671,2.5676,2.5654,2.5676,2.5672,2.5668,2.5595,2.5583,2.5573,0,0,0,0,0,0,2.5321,2.5389,2.5418,2.5408,2.5437,2.5493,2.5481,2.5518,2.5539,2.5545,2.5604,2.5614,2.5606,2.563,2.5649,2.5629,2.567,2.5667,2.5614,2.5602,2.5593,2.5587,2.5713,0,0,0,0,0,2.5301,2.531,2.5369,2.5354,2.5367,2.5421,2.5431,2.5466,2.5498,2.551,2.5546,2.5574,2.5589,2.5597,2.5613,2.5595,2.5607,2.5583,2.5573,2.5565,2.5561,2.5555,2.5545,2.5652,2.5652,2.5652,0,0,2.5259,2.5297,2.5299,2.5338,2.5364,2.5372,2.5431,2.5436,2.5443,2.5511,2.5513,2.554,2.5576,2.5567,2.5564,2.5586,2.5535,2.556,2.5553,2.5554,2.555,2.554,2.5531,2.5649,2.565,2.565,0,0,2.5188,2.5217,2.5209,2.5235,2.5276,2.5312,2.531,2.5361,2.5382,2.5386,2.5437,2.5445,2.5468,2.5493,2.5507,2.5447,2.5485,2.5451,2.5401,2.5394,2.5386,2.5379,2.5358,2.535,2.5447,2.5447,2.5447,0,2.513,2.5145,2.52,2.5203,2.5219,2.5282,2.5275,2.5297,2.5339,2.5349,2.5373,2.5405,2.5434,2.5432,2.5417,2.5427,2.5427,2.5445,2.5383,2.5376,2.537,2.5351,2.5343,2.5442,2.5443,2.5443,2.5444,0,2.5073,2.5083,2.5071,2.5113,2.5128,2.5125,2.5179,2.5187,2.5222,2.5256,2.5259,2.5296,2.5321,2.5323,2.5356,2.5327,2.5339,2.5372,2.5415,2.5355,2.5338,2.5331,2.5436,2.5438,2.5439,2.544,0,0,2.4948,2.5022,2.5017,2.5037,2.5087,2.5096,2.5096,2.5123,2.5129,2.5157,2.5159,2.5178,2.521,2.5227,2.5264,2.5258,2.5209,2.5292,2.5294,2.5276,2.5179,2.5154,2.5145,2.5235,2.5233,2.5232,2.5177,0,2.4885,2.4892,2.4942,2.4934,2.4944,2.5005,2.5006,2.5037,2.5069,2.5082,2.5117,2.513,2.5171,2.5182,2.5179,2.5215,2.519,2.522,2.5237,2.5237,2.5226,2.5136,2.5109,2.5055,2.517,2.5169,2.5168,0,2.4813,2.4839,2.4832,2.4884,2.489,2.489,2.4919,2.4931,2.4967,2.4991,2.5011,2.5053,2.5057,2.5097,2.5104,2.5123,2.5134,2.5153,2.5152,2.5155,2.5199,2.5137,2.5038,2.503,2.5158,2.5159,2.516,0,2.4723,2.4756,2.4757,2.4772,2.4832,2.4831,2.4856,2.4894,2.4908,2.4933,2.4943,2.4967,2.4981,2.4999,2.5047,2.5071,2.5048,2.5092,2.5068,2.5067,2.506,2.506,2.4962,2.5066,2.5066,2.5066,2.5066,0,2.4648,2.4642,2.4717,2.4718,2.4713,2.477,2.4763,2.4794,2.4828,2.4835,2.4889,2.4895,2.4957,2.497,2.5007,2.5007,2.5013,2.5032,2.5042,2.5028,2.5025,2.5035,2.504,2.5064,2.5064,2.5065,2.5065,0,2.4547,2.4597,2.4602,2.466,2.4674,2.4668,2.4717,2.472,2.4756,2.4765,2.477,2.4826,2.4844,2.4894,2.4923,2.4948,2.4938,2.4957,2.4927,2.4933,2.4906,2.4908,2.4811,2.4802,2.4911,2.491,2.4909,0,2.4496,2.4493,2.4551,2.456,2.4584,2.4598,2.4613,2.4669,2.4682,2.4725,2.4722,2.4745,2.4766,2.4791,2.4834,2.4858,2.4877,2.4842,2.4881,2.4867,2.4878,2.4877,2.4878,2.4833,2.4831,2.483,2.4829,0,2.44,2.4426,2.4446,2.4475,2.4491,2.4516,2.4544,2.4548,2.4612,2.4624,2.4644,2.466,2.4692,2.4714,2.4744,2.477,2.481,2.4817,2.4813,2.4798,2.478,2.479,2.4903,2.4818,2.482,2.482,2.4821,2.4821,2.4323,2.4324,2.4366,2.4386,2.4414,2.4439,2.4445,2.4483,2.4501,2.4532,2.4564,2.4581,2.4618,2.4664,2.4687,2.47,2.4721,2.4715,2.4713,2.4711,2.4705,2.4778,2.4706,2.4706,2.4706,2.4707,2.4707,0,2.4232,2.4262,2.428,2.4319,2.4335,2.4373,2.4407,2.4417,2.4432,2.4464,2.4484,2.4507,2.4529,2.4575,2.4601,2.4603,2.4622,2.4608,2.4608,2.4614,2.4684,2.4685,2.4592,2.4592,2.4592,2.4592,2.4592,2.4592,2.4186,2.419,2.422,2.4238,2.4269,2.4286,2.4302,2.4326,2.4352,2.4376,2.4395,2.4426,2.4463,2.4493,2.4515,2.4528,2.4535,2.4514,2.4533,2.4598,2.4608,2.4619,2.4621,2.4515,2.4515,2.4462,2.4462,2.4461]}]]